Time,TemperatureF,DewpointF,PressureIn,WindDirection,WindDirectionDegrees,WindSpeedMPH,WindSpeedGustMPH,Humidity,HourlyPrecipIn,Conditions,Clouds,dailyrainin,SoftwareType,DateUTC
2013-04-30 00:02:00,67.0,62.0,29.94,NW,320,0.0,0.0,83,0.00,,,0.09,,2013-04-30 04:02:00,
2013-04-30 00:12:00,67.0,62.0,29.94,NW,320,0.0,0.0,83,0.00,,,0.09,,2013-04-30 04:12:00,
2013-04-30 00:22:00,67.0,62.0,29.91,NW,320,0.0,0.0,83,0.00,,,0.09,,2013-04-30 04:22:00,
2013-04-30 00:32:00,66.0,61.0,29.91,NW,320,0.0,0.0,84,0.00,,,0.09,,2013-04-30 04:32:00,
2013-04-30 00:42:00,66.0,61.0,29.91,NW,320,0.0,0.0,84,0.00,,,0.09,,2013-04-30 04:42:00,
2013-04-30 00:52:00,66.0,61.0,29.91,NW,320,0.0,0.0,84,0.00,,,0.09,,2013-04-30 04:52:00,
2013-04-30 01:02:00,66.0,61.0,29.91,NW,320,0.0,0.0,85,0.00,,,0.09,,2013-04-30 05:02:00,
2013-04-30 01:12:00,66.0,61.0,29.91,NW,320,0.0,0.0,85,0.00,,,0.09,,2013-04-30 05:12:00,
2013-04-30 01:22:00,66.0,61.0,29.91,NW,320,0.0,0.0,85,0.00,,,0.09,,2013-04-30 05:22:00,
2013-04-30 01:31:00,66.0,61.0,29.91,NW,320,0.0,0.0,85,0.00,,,0.09,,2013-04-30 05:31:00,
2013-04-30 01:42:00,66.0,61.0,29.91,NW,320,0.0,0.0,85,0.00,,,0.09,,2013-04-30 05:42:00,
2013-04-30 01:51:00,66.0,61.0,29.91,NW,320,0.0,0.0,85,0.00,,,0.09,,2013-04-30 05:51:00,
2013-04-30 02:02:00,65.0,60.0,29.94,NW,320,0.0,0.0,85,0.00,,,0.09,,2013-04-30 06:02:00,
2013-04-30 02:12:00,65.0,60.0,29.91,NW,320,0.0,0.0,85,0.00,,,0.09,,2013-04-30 06:12:00,
2013-04-30 02:21:00,65.0,60.0,29.91,NW,320,0.0,0.0,85,0.00,,,0.09,,2013-04-30 06:21:00,
2013-04-30 02:32:00,66.0,62.0,29.91,NW,320,0.0,0.0,86,0.00,,,0.09,,2013-04-30 06:32:00,
2013-04-30 02:41:00,66.0,62.0,29.91,NW,320,0.0,0.0,86,0.00,,,0.09,,2013-04-30 06:41:00,
2013-04-30 02:52:00,66.0,62.0,29.91,NW,320,0.0,0.0,86,0.00,,,0.09,,2013-04-30 06:52:00,
2013-04-30 03:01:00,66.0,62.0,29.91,NW,320,0.0,0.0,86,0.00,,,0.09,,2013-04-30 07:01:00,
2013-04-30 03:11:00,66.0,62.0,29.91,NW,320,0.0,0.0,86,0.00,,,0.09,,2013-04-30 07:11:00,
2013-04-30 03:21:00,66.0,62.0,29.91,NW,320,0.0,0.0,86,0.00,,,0.09,,2013-04-30 07:21:00,
2013-04-30 03:32:00,66.0,61.0,29.91,NW,320,0.0,0.0,85,0.00,,,0.09,,2013-04-30 07:32:00,
2013-04-30 03:42:00,66.0,61.0,29.91,NW,320,0.0,0.0,85,0.00,,,0.09,,2013-04-30 07:42:00,
2013-04-30 03:52:00,66.0,61.0,29.91,NW,320,0.0,0.0,85,0.00,,,0.09,,2013-04-30 07:52:00,
2013-04-30 04:02:00,67.0,63.0,29.94,NW,320,0.0,0.0,86,0.00,,,0.09,,2013-04-30 08:02:00,
2013-04-30 04:11:00,67.0,63.0,29.94,NW,320,0.0,0.0,86,0.00,,,0.09,,2013-04-30 08:11:00,
2013-04-30 04:22:00,67.0,62.0,29.94,NW,320,0.0,0.0,85,0.00,,,0.09,,2013-04-30 08:22:00,
2013-04-30 04:32:00,67.0,63.0,29.94,NW,320,0.0,0.0,86,0.00,,,0.09,,2013-04-30 08:32:00,
2013-04-30 04:42:00,67.0,63.0,29.94,NW,320,0.0,0.0,86,0.00,,,0.09,,2013-04-30 08:42:00,
2013-04-30 04:52:00,67.0,63.0,29.94,NW,320,0.0,0.0,86,0.00,,,0.09,,2013-04-30 08:52:00,
2013-04-30 05:02:00,67.0,63.0,29.94,NW,320,0.0,0.0,86,0.00,,,0.09,,2013-04-30 09:02:00,
2013-04-30 05:11:00,67.0,63.0,29.94,NW,320,0.0,0.0,86,0.00,,,0.09,,2013-04-30 09:11:00,
2013-04-30 05:22:00,67.0,62.0,29.94,NW,320,0.0,0.0,85,0.00,,,0.09,,2013-04-30 09:22:00,
2013-04-30 05:33:00,67.0,62.0,29.94,NW,320,0.0,0.0,85,0.00,,,0.09,,2013-04-30 09:33:00,
2013-04-30 05:43:00,67.0,62.0,29.94,NW,320,0.0,0.0,85,0.00,,,0.09,,2013-04-30 09:43:00,
2013-04-30 05:52:00,66.0,61.0,29.94,NW,320,0.0,0.0,85,0.00,,,0.09,,2013-04-30 09:52:00,
2013-04-30 06:03:00,67.0,62.0,29.91,NW,320,0.0,0.0,85,0.00,,,0.09,,2013-04-30 10:03:00,
2013-04-30 06:12:00,67.0,62.0,29.91,NW,320,0.0,0.0,85,0.00,,,0.09,,2013-04-30 10:12:00,
2013-04-30 06:22:00,67.0,62.0,29.91,WNW,300,0.0,2.0,85,0.00,,,0.09,,2013-04-30 10:22:00,
2013-04-30 06:32:00,67.0,62.0,29.94,NW,305,1.0,2.0,85,0.00,,,0.09,,2013-04-30 10:32:00,
2013-04-30 06:41:00,67.0,62.0,29.94,NW,305,1.0,2.0,85,0.00,,,0.09,,2013-04-30 10:41:00,
2013-04-30 06:52:00,67.0,62.0,29.91,NW,305,1.0,0.0,85,0.00,,,0.09,,2013-04-30 10:52:00,
2013-04-30 07:02:00,67.0,62.0,29.94,NW,305,0.0,0.0,85,0.00,,,0.09,,2013-04-30 11:02:00,
2013-04-30 07:11:00,67.0,62.0,29.94,NW,305,0.0,0.0,85,0.00,,,0.09,,2013-04-30 11:11:00,
2013-04-30 07:21:00,67.0,62.0,29.94,NW,305,0.0,0.0,85,0.00,,,0.09,,2013-04-30 11:21:00,
2013-04-30 07:32:00,67.0,62.0,29.94,NW,305,0.0,0.0,84,0.00,,,0.09,,2013-04-30 11:32:00,
2013-04-30 07:42:00,67.0,62.0,29.94,NW,305,0.0,0.0,84,0.00,,,0.09,,2013-04-30 11:42:00,
2013-04-30 07:51:00,67.0,62.0,29.94,NW,305,0.0,0.0,84,0.00,,,0.09,,2013-04-30 11:51:00,
2013-04-30 08:01:00,67.0,62.0,29.94,NW,305,0.0,0.0,84,0.00,,,0.09,,2013-04-30 12:01:00,
2013-04-30 08:11:00,67.0,62.0,29.94,NW,305,0.0,0.0,84,0.00,,,0.09,,2013-04-30 12:11:00,
2013-04-30 08:21:00,67.0,62.0,29.97,NW,305,0.0,0.0,84,0.00,,,0.09,,2013-04-30 12:21:00,
2013-04-30 08:31:00,67.0,62.0,29.97,NW,305,0.0,0.0,84,0.00,,,0.09,,2013-04-30 12:31:00,
2013-04-30 08:41:00,67.0,62.0,29.97,NW,305,0.0,0.0,84,0.00,,,0.09,,2013-04-30 12:41:00,
2013-04-30 08:51:00,68.0,63.0,29.97,NW,305,0.0,0.0,84,0.00,,,0.09,,2013-04-30 12:51:00,
2013-04-30 09:01:00,68.0,62.0,29.97,NW,305,0.0,0.0,82,0.00,,,0.09,,2013-04-30 13:01:00,
2013-04-30 09:11:00,68.0,62.0,29.97,NW,305,0.0,0.0,82,0.00,,,0.09,,2013-04-30 13:11:00,
2013-04-30 09:21:00,69.0,63.0,29.97,NW,305,0.0,0.0,82,0.00,,,0.09,,2013-04-30 13:21:00,
2013-04-30 09:31:00,69.0,63.0,29.97,NW,305,0.0,0.0,81,0.00,,,0.09,,2013-04-30 13:31:00,
2013-04-30 09:41:00,69.0,63.0,29.97,NW,305,0.0,0.0,81,0.00,,,0.09,,2013-04-30 13:41:00,
2013-04-30 09:51:00,70.0,63.0,29.97,NW,305,0.0,0.0,79,0.00,,,0.09,,2013-04-30 13:51:00,
2013-04-30 10:02:00,72.0,64.0,29.97,NW,305,1.0,2.0,77,0.00,,,0.09,,2013-04-30 14:02:00,
2013-04-30 10:11:00,73.0,65.0,29.97,NW,310,1.0,2.0,76,0.00,,,0.09,,2013-04-30 14:11:00,
2013-04-30 10:21:00,73.0,65.0,29.97,NW,310,1.0,2.0,76,0.00,,,0.09,,2013-04-30 14:21:00,
2013-04-30 10:31:00,74.0,65.0,29.97,West,275,1.0,0.0,74,0.00,,,0.09,,2013-04-30 14:31:00,
2013-04-30 10:41:00,74.0,65.0,29.97,West,275,1.0,0.0,74,0.00,,,0.09,,2013-04-30 14:41:00,
2013-04-30 10:52:00,74.0,65.0,29.97,West,275,0.0,0.0,73,0.00,,,0.09,,2013-04-30 14:52:00,
2013-04-30 11:01:00,75.0,65.0,29.97,West,280,0.0,0.0,72,0.00,,,0.09,,2013-04-30 15:01:00,
2013-04-30 11:11:00,75.0,65.0,29.97,West,280,0.0,0.0,72,0.00,,,0.09,,2013-04-30 15:11:00,
2013-04-30 11:21:00,75.0,64.0,29.97,WNW,300,0.0,2.0,68,0.00,,,0.09,,2013-04-30 15:21:00,
2013-04-30 11:32:00,77.0,63.0,29.97,WNW,285,2.0,2.0,62,0.00,,,0.09,,2013-04-30 15:32:00,
2013-04-30 11:42:00,77.0,63.0,29.97,WNW,285,2.0,2.0,62,0.00,,,0.09,,2013-04-30 15:42:00,
2013-04-30 11:52:00,77.0,62.0,29.97,NW,315,5.0,15.0,59,0.00,,,0.09,,2013-04-30 15:52:00,
2013-04-30 12:02:00,78.0,62.0,29.97,NW,315,1.0,0.0,57,0.00,,,0.09,,2013-04-30 16:02:00,
2013-04-30 12:12:00,78.0,62.0,29.97,NW,315,1.0,0.0,57,0.00,,,0.09,,2013-04-30 16:12:00,
2013-04-30 12:23:00,79.0,62.0,29.97,NW,315,0.0,0.0,56,0.00,,,0.09,,2013-04-30 16:23:00,
2013-04-30 12:33:00,79.0,61.0,29.97,NW,315,0.0,0.0,54,0.00,,,0.09,,2013-04-30 16:33:00,
2013-04-30 12:42:00,79.0,61.0,29.97,NW,315,0.0,0.0,54,0.00,,,0.09,,2013-04-30 16:42:00,
2013-04-30 12:52:00,80.0,61.0,29.97,NW,315,0.0,0.0,53,0.00,,,0.09,,2013-04-30 16:52:00,
2013-04-30 13:02:00,81.0,62.0,29.97,NW,305,2.0,2.0,52,0.00,,,0.09,,2013-04-30 17:02:00,
2013-04-30 13:12:00,81.0,62.0,29.97,NW,305,2.0,2.0,52,0.00,,,0.09,,2013-04-30 17:12:00,
2013-04-30 13:22:00,82.0,60.0,29.94,NW,305,2.0,2.0,48,0.00,,,0.09,,2013-04-30 17:22:00,
2013-04-30 13:32:00,82.0,60.0,29.94,NW,315,2.0,3.0,48,0.00,,,0.09,,2013-04-30 17:32:00,
2013-04-30 13:42:00,82.0,60.0,29.94,NW,315,2.0,3.0,48,0.00,,,0.09,,2013-04-30 17:42:00,
2013-04-30 13:52:00,82.0,59.0,29.94,West,260,2.0,3.0,46,0.00,,,0.09,,2013-04-30 17:52:00,
2013-04-30 14:01:00,84.0,60.0,29.94,West,265,2.0,0.0,44,0.00,,,0.09,,2013-04-30 18:01:00,
2013-04-30 14:11:00,84.0,60.0,29.94,West,265,2.0,0.0,44,0.00,,,0.09,,2013-04-30 18:11:00,
2013-04-30 14:22:00,84.0,60.0,29.94,NW,305,1.0,3.0,44,0.00,,,0.09,,2013-04-30 18:22:00,
2013-04-30 14:32:00,83.0,61.0,29.94,West,265,1.0,3.0,48,0.00,,,0.09,,2013-04-30 18:32:00,
2013-04-30 14:42:00,83.0,61.0,29.94,West,265,1.0,3.0,48,0.00,,,0.09,,2013-04-30 18:42:00,
2013-04-30 14:51:00,84.0,58.0,29.94,NW,320,1.0,2.0,42,0.00,,,0.09,,2013-04-30 18:51:00,
2013-04-30 15:01:00,85.0,62.0,29.94,NNE,20,3.0,7.0,46,0.00,,,0.09,,2013-04-30 19:01:00,
2013-04-30 15:11:00,85.0,62.0,29.94,NNE,20,3.0,7.0,46,0.00,,,0.09,,2013-04-30 19:11:00,
2013-04-30 15:22:00,84.0,62.0,29.94,East,95,6.0,8.0,48,0.00,,,0.09,,2013-04-30 19:22:00,
2013-04-30 15:32:00,83.0,62.0,29.94,East,85,7.0,7.0,50,0.00,,,0.09,,2013-04-30 19:32:00,
2013-04-30 15:42:00,83.0,62.0,29.94,East,85,7.0,7.0,50,0.00,,,0.09,,2013-04-30 19:42:00,
2013-04-30 15:52:00,83.0,63.0,29.94,East,85,6.0,8.0,51,0.00,,,0.09,,2013-04-30 19:52:00,
2013-04-30 16:02:00,82.0,63.0,29.94,ESE,105,7.0,8.0,52,0.00,,,0.09,,2013-04-30 20:02:00,
2013-04-30 16:11:00,82.0,63.0,29.94,ESE,105,7.0,8.0,52,0.00,,,0.09,,2013-04-30 20:11:00,
2013-04-30 16:21:00,82.0,63.0,29.94,ENE,75,7.0,10.0,53,0.00,,,0.09,,2013-04-30 20:21:00,
2013-04-30 16:32:00,79.0,62.0,29.94,East,95,9.0,12.0,57,0.00,,,0.09,,2013-04-30 20:32:00,
2013-04-30 16:42:00,79.0,62.0,29.94,East,95,9.0,12.0,57,0.00,,,0.09,,2013-04-30 20:42:00,
2013-04-30 16:52:00,78.0,62.0,29.94,East,100,7.0,7.0,59,0.00,,,0.09,,2013-04-30 20:52:00,
2013-04-30 17:02:00,79.0,62.0,29.94,East,90,6.0,6.0,57,0.00,,,0.09,,2013-04-30 21:02:00,
2013-04-30 17:11:00,79.0,62.0,29.94,ENE,75,6.0,8.0,56,0.00,,,0.09,,2013-04-30 21:11:00,
2013-04-30 17:22:00,79.0,62.0,29.94,ENE,75,6.0,8.0,56,0.00,,,0.09,,2013-04-30 21:22:00,
2013-04-30 17:32:00,80.0,62.0,29.94,East,80,7.0,8.0,55,0.00,,,0.09,,2013-04-30 21:32:00,
2013-04-30 17:42:00,80.0,62.0,29.94,East,80,7.0,8.0,55,0.00,,,0.09,,2013-04-30 21:42:00,
2013-04-30 17:53:00,78.0,62.0,29.94,East,90,8.0,10.0,57,0.00,,,0.04,,2013-04-30 21:53:00,
2013-04-30 18:02:00,77.0,61.0,29.94,East,100,7.0,10.0,57,0.00,,,0.03,,2013-04-30 22:02:00,
2013-04-30 18:12:00,77.0,61.0,29.94,East,100,7.0,10.0,57,0.00,,,0.03,,2013-04-30 22:12:00,
2013-04-30 18:23:00,77.0,60.0,29.94,East,90,8.0,9.0,56,0.00,,,0.01,,2013-04-30 22:23:00,
2013-04-30 18:33:00,76.0,60.0,29.94,East,85,7.0,8.0,57,0.00,,,0.01,,2013-04-30 22:33:00,
2013-04-30 18:42:00,76.0,60.0,29.94,East,85,7.0,8.0,57,0.00,,,0.01,,2013-04-30 22:42:00,
2013-04-30 18:52:00,76.0,60.0,29.94,ENE,70,7.0,8.0,57,0.00,,,0.01,,2013-04-30 22:52:00,
2013-04-30 19:02:00,75.0,59.0,29.94,East,95,7.0,10.0,57,0.00,,,0.01,,2013-04-30 23:02:00,
2013-04-30 19:12:00,75.0,59.0,29.94,East,95,7.0,10.0,57,0.00,,,0.01,,2013-04-30 23:12:00,
2013-04-30 19:22:00,75.0,59.0,29.97,East,80,7.0,9.0,57,0.00,,,0.01,,2013-04-30 23:22:00,
2013-04-30 19:32:00,74.0,59.0,29.94,East,80,8.0,12.0,59,0.00,,,0.01,,2013-04-30 23:32:00,
2013-04-30 19:42:00,74.0,59.0,29.94,East,80,8.0,12.0,59,0.00,,,0.01,,2013-04-30 23:42:00,
2013-04-30 19:52:00,73.0,60.0,29.97,East,85,8.0,8.0,63,0.00,,,0.01,,2013-04-30 23:52:00,
2013-04-30 20:02:00,73.0,60.0,29.97,ENE,75,6.0,9.0,63,0.00,,,0.01,,2013-05-01 00:02:00,
2013-04-30 20:11:00,73.0,60.0,29.97,ENE,75,6.0,9.0,63,0.00,,,0.01,,2013-05-01 00:11:00,
2013-04-30 20:22:00,73.0,60.0,29.97,ESE,105,6.0,9.0,63,0.00,,,0.01,,2013-05-01 00:22:00,
2013-04-30 20:32:00,73.0,60.0,29.97,East,85,3.0,6.0,63,0.00,,,0.01,,2013-05-01 00:32:00,
2013-04-30 20:42:00,73.0,60.0,29.97,East,85,3.0,6.0,63,0.00,,,0.01,,2013-05-01 00:42:00,
2013-04-30 20:51:00,72.0,60.0,29.97,NE,55,3.0,6.0,65,0.00,,,0.01,,2013-05-01 00:51:00,
2013-04-30 21:01:00,72.0,60.0,29.97,ENE,60,0.0,2.0,65,0.00,,,0.01,,2013-05-01 01:01:00,
2013-04-30 21:11:00,72.0,60.0,29.97,ENE,60,0.0,2.0,65,0.00,,,0.01,,2013-05-01 01:11:00,
2013-04-30 21:21:00,71.0,60.0,30.00,ENE,60,0.0,0.0,68,0.00,,,0.01,,2013-05-01 01:21:00,
2013-04-30 21:32:00,71.0,60.0,30.00,ESE,115,0.0,0.0,69,0.00,,,0.00,,2013-05-01 01:32:00,
2013-04-30 21:42:00,71.0,60.0,30.00,ESE,115,0.0,0.0,69,0.00,,,0.00,,2013-05-01 01:42:00,
2013-04-30 21:52:00,71.0,60.0,30.00,ESE,120,0.0,0.0,69,0.00,,,0.00,,2013-05-01 01:52:00,
2013-04-30 22:02:00,71.0,60.0,30.00,ESE,120,0.0,0.0,69,0.00,,,0.00,,2013-05-01 02:02:00,
2013-04-30 22:11:00,71.0,60.0,30.00,ESE,120,0.0,0.0,69,0.00,,,0.00,,2013-05-01 02:11:00,
2013-04-30 22:21:00,71.0,60.0,30.00,ENE,60,0.0,0.0,69,0.00,,,0.00,,2013-05-01 02:21:00,
2013-04-30 22:32:00,71.0,60.0,30.00,NE,40,0.0,0.0,69,0.00,,,0.00,,2013-05-01 02:32:00,
2013-04-30 22:42:00,71.0,60.0,30.00,NE,40,0.0,0.0,69,0.00,,,0.00,,2013-05-01 02:42:00,
2013-04-30 22:52:00,71.0,60.0,30.03,NE,50,0.0,0.0,69,0.00,,,0.00,,2013-05-01 02:52:00,
2013-04-30 23:02:00,71.0,60.0,30.00,NE,45,1.0,2.0,69,0.00,,,0.00,,2013-05-01 03:02:00,
2013-04-30 23:11:00,71.0,60.0,30.00,NE,45,1.0,2.0,69,0.00,,,0.00,,2013-05-01 03:11:00,
2013-04-30 23:21:00,71.0,60.0,30.00,ENE,70,0.0,0.0,69,0.00,,,0.00,,2013-05-01 03:21:00,
2013-04-30 23:33:00,71.0,60.0,30.00,NE,55,1.0,2.0,69,0.00,,,0.00,,2013-05-01 03:33:00,
2013-04-30 23:43:00,71.0,60.0,30.00,NE,55,1.0,2.0,69,0.00,,,0.00,,2013-05-01 03:43:00,
2013-04-30 23:53:00,71.0,60.0,30.00,NE,55,1.0,0.0,69,0.00,,,0.00,,2013-05-01 03:53:00,